Regional Weather Roundup
Issued by NWS Green Bay, WI

Home | Current Version | Previous Version | Graphics & Text | Print | Product List | Glossary Off
Versions: 1 2 3 4 5 6 7 8 9 10 11 12 13 14 15 16 17 18 19 20 21 22 23 24 25 26 27 28 29 30 31 32 33 34 35 36 37 38 39 40 41 42 43 44 45 46 47 48 49 50

000
ASUS43 KGRB 051100
RWRGRB

NORTH-CENTRAL AND NORTHEAST WISCONSIN REGIONAL WEATHER ROUNDUP
NATIONAL WEATHER SERVICE GREEN BAY WI
600 AM CDT SAT SEP 05 2015

WIZ005-009-010>012-018-019-051200-
NORTH CENTRAL WISCONSIN

CITY           SKY/WX    TMP DP  RH WIND       PRES   REMARKS
IRONWOOD       CLEAR     68  64  88 S9        29.99F
MANITOWISH WTR NOT AVBL
ARBOR VITAE    NOT AVBL
EAGLE RIVER    NOT AVBL
LAND O LAKES   NOT AVBL
RHINELANDER    CLOUDY    66  64  93 CALM      30.09S FOG
PHILLIPS       MOCLDY    66  65  99 SE3       30.06S FOG
ANTIGO         NOT AVBL
TOMAHAWK       NOT AVBL
MERRILL        CLOUDY    66  66 100 CALM      30.08S FOG
$$

WIZ013-073-051200-
NORTHEAST WISCONSIN

CITY           SKY/WX    TMP DP  RH WIND       PRES   REMARKS
IRON MOUNTAIN  FOG       62  61  96 CALM      30.07S VSB 1/4
MARINETTE      CLOUDY    64  61  88 CALM      30.07S
$$

WIZ017-030-035>037-045-051200-
CENTRAL WISCONSIN

CITY           SKY/WX    TMP DP  RH WIND       PRES   REMARKS
MEDFORD        NOT AVBL
WAUSAU         CLOUDY    67  65  93 SE3       30.06S FOG
MOSINEE        CLOUDY    64  64 100 CALM      30.08F FOG
MARSHFIELD     CLOUDY    68  64  87 SE6       30.06S FOG
WISC RAPIDS    CLOUDY    66  63  90 CALM      30.07S FOG
STEVENS POINT  NOT AVBL
WAUPACA        NOT AVBL
SHAWANO        NOT AVBL
CLINTONVILLE   CLOUDY    63  63 100 CALM      30.07S FOG
WAUTOMA        MOCLDY    64  64 100 CALM      30.07S FOG
$$

WIZ038-039-048-051-051200-
FOX VALLEY

CITY           SKY/WX    TMP DP  RH WIND       PRES   REMARKS
NWS GREEN BAY  FOG       62  62 100 CALM      30.07F VSB 1/4
APPLETON       CLOUDY    66  66 100 VRB3      30.06S FOG
OSHKOSH        MOCLDY    65  63  93 CALM      30.06F FOG
FOND DU LAC    PTCLDY    65  64  97 CALM      30.06F
$$

WIZ022-050-052-051200-
EAST CENTRAL WISCONSIN

CITY           SKY/WX    TMP DP  RH WIND       PRES   REMARKS
EPHRAIM        FOG       65  65 100 CALM      30.07S VSB 1/4
STURGEON BAY   CLOUDY    66  63  88 CALM      30.10S VSB<1/4
MANITOWOC      FOG       63  63 100 MISG      30.08F VSB 1/2
SHEBOYGAN      FOG       64  64 100 CALM      30.07S VSB 1/4
$$

LMZ563-521-522-541>543-051200-
LAKESHORE

STATION/POSITION TIME  TEMP    WIND        PRES    VSBY  WAVE
                       AIR SEA DIR/SP/G                  HT/PER
                 (UTC) (F)     (DEG/KT/KT) (MB)    (MI)  (FT/S)
SHEBOYGAN LKSHOR 1000   61      90/  2/  3 1018.5F
KEWAUNEE LKSHORE 1000   62        CALM     1017.6R
ALGOMA MARINA    1014             CALM       N/A
NORTHPORT PIER   1000   67     290/  1/  2 1017.9S
N MID LAKE BUOY  0950   68 67  190/  6/  8 1017.5R         0
S GREEN BAY BUOY 1000   66 67   40/  2/  2 1019.8R
SISTER BAY LKSHO 1011   66        CALM       N/A
CHAMBERS ISLAND  1000   65      CALM  /  1 1018.3R
MENOMINEE LKSHOR 1000   66      CALM  /  2 1017.1R
$$


USA.gov is the U.S. government's official web portal to all federal, state and local government web resources and services.